Regional Weather Roundup
Issued by NWS

Home | Current Version | Previous Version | Graphics & Text | Print | Product List | Glossary On
Versions: 1 2 3 4 5 6 7 8 9 10 11 12 13 14 15 16 17 18 19 20 21 22 23 24 25 26 27 28 29 30 31 32 33 34 35 36 37 38 39 40 41 42 43 44 45 46 47 48 49 50
000
ASUS43 KMKX 262100
RWRWI

WISCONSIN REGIONAL WEATHER ROUNDUP
NATIONAL WEATHER SERVICE MILWAUKEE/SULLIVAN WI
300 PM CST WED NOV 26 2014

NOTE: "FAIR" INDICATES FEW OR NO CLOUDS BELOW 12,000 FEET WITH NO
SIGNIFICANT WEATHER AND/OR OBSTRUCTIONS TO VISIBILITY.

WIZ001-002-006>008-014>016-023>028-262200-
NORTHWEST WISCONSIN

CITY           SKY/WX    TMP DP  RH WIND       PRES   REMARKS
SUPERIOR ARPT  PTSUNNY   22  10  59 N6        30.25R WCI  15
ASHLAND        CLOUDY    23  17  78 NW8       30.22R WCI  14
HAYWARD        CLOUDY    23  18  81 N5        30.18R WCI  17
SIREN          CLOUDY    25  16  68 N10       30.21R WCI  15
CUMBERLAND     CLOUDY    23  16  74 N7        30.17R WCI  15
RICE LAKE      PTSUNNY   25  17  73 NW6       30.19R WCI  18
CHETEK         MIX PCPN  25  21  85 NW5       30.18R WCI  19
LADYSMITH      LGT SNOW  25  21  85 N6        30.17R WCI  18
EAU CLAIRE     LGT SNOW  25  19  80 N5        30.18R WCI  19
MENOMONIE      LGT SNOW  25  21  83 CALM      30.19R
NEW RICHMOND   CLOUDY    26  18  73 N10       30.19S WCI  16
OSCEOLA        CLOUDY    26  17  68 N7        30.23R WCI  18
$$

WIZ003>005-009-010-017-018-262200-
NORTH CENTRAL WISCONSIN

CITY           SKY/WX    TMP DP  RH WIND       PRES   REMARKS
MANITOWISH WTR LGT SNOW  21  19  89 NW6       30.11R WCI  14
ARBOR VITAE    LGT SNOW  23  19  85 NW5       30.11R WCI  17
WOODRUFF       LGT SNOW  23  19  85 NW5       30.11R WCI  17
RHINELANDER    LGT SNOW  22  17  81 W7        30.11R WCI  13
EAGLE RIVER    LGT SNOW  22  17  80 W5        30.10R WCI  16
LAND O LAKES   LGT SNOW  23  19  85 NW3       30.10S
PHILLIPS       LGT SNOW  22  19  85 NW6       30.12R WCI  15
TOMAHAWK       LGT SNOW  23  18  81 CALM      30.12S
MEDFORD        LGT SNOW  23  18  83 N3        30.12R
MERRILL        FLURRIES  25  17  72 N6        30.12S WCI  18
$$

WIZ029-030-035-036-043>047-262200-
CENTRAL WISCONSIN

CITY           SKY/WX    TMP DP  RH WIND       PRES   REMARKS
WAUSAU         PTSUNNY   24  17  74 W6        30.12R WCI  17
MOSINEE        MOSUNNY   25  21  86 N5        30.13S WCI  19
MARSHFIELD     CLOUDY    26  16  65 E3        30.13R
STEVENS POINT  MOSUNNY   22  17  83 CALM      30.14S
WAUPACA        CLOUDY    24  19  83 CALM      30.16S FOG
WAUTOMA        NOT AVBL
WISC RAPIDS    MOSUNNY   26  16  65 CALM      30.16R
CAMP DOUGLAS   NOT AVBL
$$

WIZ011>013-019>022-031-037>040-048>050-262200-
NORTHEAST WISCONSIN

CITY           SKY/WX    TMP DP  RH WIND       PRES   REMARKS
ANTIGO         CLOUDY    20  18  91 CALM      30.10S
SHAWANO        MOSUNNY   25  19  78 CALM      30.16S
OCONTO         MOCLDY    23  18  82 CALM      30.17R
STURGEON BAY   MOCLDY    23  16  74 W7        30.16R WCI  15
GREEN BAY      PTSUNNY   24  18  77 NW8       30.17R WCI  15
MANITOWOC      NOT AVBL
APPLETON       PTSUNNY   21  19  93 NW6       30.15R FOG     WCI  14
CLINTONVILLE   CLOUDY    23  18  80 CALM      30.15F
OSHKOSH        PTSUNNY   22  17  81 MISG      30.15R HAZE
$$

WIZ032>034-041-042-053>061-262200-
SOUTHWEST WISCONSIN

CITY           SKY/WX    TMP DP  RH WIND       PRES   REMARKS
LA CROSSE      CLOUDY    29  18  63 N7        30.17R WCI  22
SPARTA         CLOUDY    28  18  66 NE6       30.16R WCI  21
VIROQUA        PTSUNNY   26  20  78 NE6       30.11R WCI  20
BOSCOBEL       CLOUDY    25  20  81 VRB5      30.17R HAZE    WCI  19
PRAIRIE DU CHI CLOUDY    27  21  77 NE5       30.14R WCI  22
PLATTEVILLE    CLOUDY    27  24  89 CALM      30.11R
$$

WIZ056-057-062-063-064-067-068-262200-
SOUTH CENTRAL WISCONSIN

CITY           SKY/WX    TMP DP  RH WIND       PRES   REMARKS
REEDSBURG      CLOUDY    22  18  83 NE3       30.14R
BARABOO/DELLS  CLOUDY    21  18  89 NE5       30.14R FOG     WCI  14
LONE ROCK      NOT AVBL
MINERAL POINT  CLOUDY    27  23  86 NE8       30.10R FOG     WCI  18
MADISON        CLOUDY    20  16  84 N7        30.15R FOG     WCI  11
MIDDLETON      CLOUDY    24  19  82 N6        30.14R WCI  17
WATERTOWN      PTSUNNY   19  19  99 SW5       30.14R FOG     WCI  12
MONROE         CLOUDY    27  23  86 NE5       30.10R WCI  21
JANESVILLE     NOT AVBL
$$

WIZ051-052-058>065-066-070>072-262200-
SOUTHEAST WISCONSIN

CITY           SKY/WX    TMP DP  RH WIND       PRES   REMARKS
MILWAUKEE      CLOUDY    30  21  69 CALM      30.12R
WAUKESHA       CLOUDY    25  19  80 CALM      30.13R
MILWAUKEE/TIMM CLOUDY    28  19  69 CALM      30.13R
RACINE         CLOUDY    29  23  78 N5        30.14R WCI  24
BURLINGTON     PTSUNNY   25  22  86 N3        30.12R
KENOSHA        CLOUDY    28  23  81 N5        30.12R HAZE    WCI  23
FOND DU LAC    PTSUNNY   24  17  74 NW7       30.14R WCI  16
SHEBOYGAN      PTSUNNY   26  20  77 N6        30.14R WCI  19
WEST BEND      PTSUNNY   28  19  69 W3        30.12R
JUNEAU         PTSUNNY   23  18  82 NW5       30.14R WCI  17
$$

LSZ147-162-262200-
LAKE SUPERIOR

STATION/POSITION TIME  TEMP    WIND        PRES    WAVE
                       AIR SEA DIR/SP/G            HT/PER
                 (UTC) (F)     (DEG/KT/KT) (MB)    (FT/S)
DEVILS ISLAND    2000   23     350/ 12/ 15 1024.0R
PORT WING        2000   24     330/ 10/ 15 1023.4R
SAXON HARBOR     2000   26     330/ 13/ 16 1022.0R
$$

LMZ867-665-643>646-262200-
LAKE MICHIGAN

STATION/POSITION TIME  TEMP    WIND        PRES    WAVE
                       AIR SEA DIR/SP/G            HT/PER
                 (UTC) (F)     (DEG/KT/KT) (MB)    (FT/S)
CHAMBERS ISLAND  2000   24     250/  5/ 10 1021.3S
N MID LAKE BUOY  1950   28 42  320/  8/ 12 1021.6F   1/ 3
NORTHPORT PIER   2000   27     310/  7/  9 1021.0S
SISTER BAY       1913           CALM  /  3   N/A
KEWAUNEE LAKESHO 2000   26      CALM  /  2 1020.1R
SHEBOYGAN LAKESH 2000   27 35  310/  4/  5 1021.9F
PORT WASHINGTON  2040   31      20/  4/  6 1021.0S
MILWAUKEE LAKESH 2000   29      20/  4/  7   N/A
S MID LAKE BUOY  1950   31 42  160/  4/  6 1020.6F   1/ 3
KENOSHA   LAKESH 2000   28      10/  2/  5 1020.0S
$$

TC  - TEMPERATURE IN CELSIUS
VSB - VISIBILITY IN STATUTE MILES
WCI - WIND CHILL INDEX
HX  - HEAT INDEX



USA.gov is the U.S. government's official web portal to all federal, state and local government web resources and services.